Regional Weather Roundup
Issued by NWS

Home | Current Version | Previous Version | Text Only | Print | Product List | Glossary On
Versions: 1 2 3 4 5 6 7 8 9 10 11 12 13 14 15 16 17 18 19 20 21 22 23 24 25 26 27 28 29 30 31 32 33 34 35 36 37 38 39 40 41 42 43 44 45 46 47 48 49 50
000
ASUS45 KABQ 250910
RWRNM
NEW MEXICO REGIONAL WEATHER ROUNDUP
NATIONAL WEATHER SERVICE ALBUQUERQUE NM
300 AM MDT WED MAY 25 2016

NOTE: "FAIR" MEANS FEW OR NO CLOUDS BELOW 12,000 FEET AGL WITH NO
       SIGNIFICANT WEATHER OR OBSTRUCTIONS TO VISION.

      THIS PRODUCT IS RELEASED AS TWO VERSIONS.  ONE VERSION NEAR
      THE TOP OF THE HOUR CONTAINING PRELIMINARY DATA FROM ALBUQUERQUE
      AND OTHER STATIONS.  A FINAL VERSION WITH ADDITIONAL DATA IS
      ISSUED ABOUT 10 MINUTES AFTER THE HOUR.

NMZ501-503-504-510>518-251000-
NORTHWEST PLATEAU/NORTHCENTRAL MOUNTAINS

CITY           SKY/WX    TMP DP  RH WIND       PRES   REMARKS
FARMINGTON     FAIR      54  32  43 SW9       30.04F
LOS ALAMOS     FAIR      55   6  14 W14G23    30.13S
SANTA FE       FAIR      41  14  33 VRB6      30.10R
TAOS           FAIR      43   7  22 E10       30.14R
ANGEL FIRE     FAIR      34  18  52 CALM      30.18S

$$
NMZ402-403-502-505>509-251000-
WESTCENTRAL MOUNTAINS/SOUTHWEST MOUNTAINS

CITY           SKY/WX    TMP DP  RH WIND       PRES   REMARKS
GALLUP         FAIR      37  16  42 CALM      30.13F
GRANTS         FAIR      38  10  31 NW5       30.13F WCI  35
SILVER CITY      N/A     50  16  25 NW8       30.12S

$$
NMZ407-409-411-412-251000-
SOUTHERN DESERTS

CITY           SKY/WX    TMP DP  RH WIND       PRES   REMARKS
LORDSBURG      FAIR      55  14  19 W3        30.06S
DEMING         FAIR      62  16  16 W9        30.05S
LAS CRUCES     FAIR      59  17  20 W8        30.06S
HOLLOMAN AFB   FAIR      67  20  16 SE10      30.01R
ALAMOGORDO     FAIR      61  19  20 SE7       30.04R
T OR C         FAIR      62  19  19 NW10      30.03F

$$
NMZ519>523-251000-
CENTRAL VALLEYS/CENTRAL HIGHLANDS

CITY           SKY/WX    TMP DP  RH WIND       PRES   REMARKS
ALBUQUERQUE    FAIR      61  15  16 N5        30.07S
DOUBLE EAGLE   FAIR      44  13  29 CALM      30.10S
MORIARTY ARPT  FAIR      41  13  31 N3        30.10S
CLINES CORNERS FAIR      47  12  24 W14       30.10F
BELEN          FAIR      55  11  17 W10       30.07S
SOCORRO        FAIR      55  23  28 CALM      30.04R

$$
NMZ524>526-539-540-251000-
SOUTHCENTRAL MOUNTAINS

CITY           SKY/WX    TMP DP  RH WIND       PRES   REMARKS
RUIDOSO          N/A     54  18  24 SW9       30.15S

$$
NMZ527>531-251000-
NORTHEAST HIGHLANDS/NORTHEAST PLAINS

CITY           SKY/WX    TMP DP  RH WIND       PRES   REMARKS
LAS VEGAS      FAIR      53  10  18 W7        30.08S
RATON          FAIR      62   8  12 W22G39    29.98F
CLAYTON        FAIR      56  26  31 W13       29.92R

$$
NMZ532>537-251000-
EASTCENTRAL PLAINS

CITY           SKY/WX    TMP DP  RH WIND       PRES   REMARKS
TUCUMCARI      FAIR      63  24  22 W12       29.89F
CANNON AFB     FAIR      63  25  23 W13       29.95R
CLOVIS AIRPORT FAIR      61  27  27 W15       29.95R

$$
NMZ028-029-538-251000-
SOUTHEAST PLAINS

CITY           SKY/WX    TMP DP  RH WIND       PRES   REMARKS
ROSWELL        FAIR      62  23  22 W10       29.95R
ARTESIA        FAIR      64  16  15 W13       29.95S
CARLSBAD       FAIR      69  14  12 W16       29.93S
HOBBS          FAIR      63  63 100 SW7       29.97F


$$




USA.gov is the U.S. government's official web portal to all federal, state and local government web resources and services.